Regional Weather Roundup
Issued by NWS

Home | Current Version | Previous Version | Graphics & Text | Print | Product List | Glossary Off
Versions: 1 2 3 4 5 6 7 8 9 10 11 12 13 14 15 16 17 18 19 20 21 22 23 24 25 26 27 28 29 30 31 32 33 34 35 36 37 38 39 40 41 42 43 44 45 46 47 48 49

000
ASUS43 KDMX 030207
RWRIA

WEATHER ROUNDUP FOR IOWA
NATIONAL WEATHER SERVICE DES MOINES IA
900 PM CDT WED SEP 02 2015

NOTE: "FAIR" INDICATES FEW OR NO CLOUDS BELOW 12,000 FEET WITH NO
SIGNIFICANT WEATHER AND/OR OBSTRUCTIONS TO VISIBILITY.

* - THESE STATIONS ARE NOT NWS STATIONS...THUS NOT UNDER NWS
QUALITY CONTROL.  THEY ALSO DO NOT REPORT WEATHER SUCH
AS PRECIPITATION OR FOG.

IAZ001>003-012>014-020>022-031>034-043>046-030300-
   NORTHWEST IOWA

CITY           SKY/WX    TMP DP  RH WIND       PRES   REMARKS
CARROLL *      CLEAR     72  72 100 S5        29.88S
CHEROKEE *     CLEAR     73  73 100 CALM      29.86R
DENISON *      CLEAR     77  72  83 SE7G14    29.85R
LE MARS *      CLEAR     77  73  88 SE7       29.84S
ORANGE CITY *  CLEAR     77  72  83 CALM      29.86R
SHELDON *      CLEAR     73  72  94 SE5       29.85R
SIOUX CITY     CLEAR     76  71  85 SE7       29.83R
SPENCER        HAZE      74  69  85 SE6       29.88R VSB 1/4
STORM LAKE *   CLEAR     73  72  94 SE6       29.89R
$$

IAZ055>058-069>071-079>083-090>094-030300-
   SOUTHWEST IOWA

CITY           SKY/WX    TMP DP  RH WIND       PRES   REMARKS
ATLANTIC *     PTCLDY    77  72  83 S5        29.89R
AUDUBON *      CLEAR     73  70  88 CALM      29.91R
CLARINDA *     PTCLDY    79  73  83 S5        29.91R HX  82
COUNCIL BLFS * CLEAR     79  72  78 S12       29.87R HX  82
CRESTON *      PTCLDY    75  72  88 S9        29.94R
LAMONI         PTCLDY    78  71  79 S7        29.93R HX  80
RED OAK *      MOCLDY    77  73  88 S6        29.89R
SHENANDOAH *   CLEAR     79  72  78 SE8       29.89R HX  82
$$

IAZ047>049-059>061-072>074-084-030300-
   CENTRAL IOWA

CITY           SKY/WX    TMP DP  RH WIND       PRES   REMARKS
AMES           CLEAR     73  68  84 SE6       29.91R
ANKENY *       CLEAR     77  72  83 S7        29.90S
CHARITON *     CLOUDY    75  72  88 S6        29.94R
DES MOINES     MOCLDY    79  70  74 S8        29.91R HX  82
GRINNELL*      CLEAR     75  68  78 S7        29.94R
KNOXVILLE *    CLOUDY    77  70  78 S5        29.92R
MARSHALLTOWN   CLEAR     76  69  79 S6        29.92R
PERRY *          N/A     73  72  94 S7        29.90R
$$

IAZ004>006-015-016-023>025-035-036-030300-
   NORTH CENTRAL IOWA

CITY           SKY/WX    TMP DP  RH WIND       PRES   REMARKS
ALGONA *       CLEAR     75  72  88 S7        29.89R
CLARION *      CLEAR     73  70  88 S9        29.90R
ESTHERVILLE    PTCLDY    73  71  93 S6        29.88R
FORT DODGE *   CLEAR     77  68  73 SE5       29.91R
MASON CITY     CLEAR     72  70  93 S6        29.91R
FOREST CITY *  CLEAR     70  70 100 S6        29.89R
IOWA FALLS *     N/A     73  70  88 S7        29.92S
$$

IAZ007>011-017>019-026>030-037>042-050>054-066-030300-
   NORTHEAST IOWA

CITY           SKY/WX    TMP DP  RH WIND       PRES   REMARKS
CEDAR RAPIDS   CLEAR     73  71  93 S6        29.93R
CHARLES CITY * CLEAR     73  73 100 S7        29.91R
CLINTON *      CLEAR     73  70  88 S5        29.97R
DECORAH *      PTCLDY    75  72  88 S8        29.91S
DUBUQUE        CLEAR     72  70  93 S5        29.96R
MONTICELLO *   CLEAR     73  70  88 SE5       29.94R
OELWEIN *      CLEAR     73  70  88 S6        29.94R
WATERLOO       CLEAR     77  70  79 S12       29.90R
$$

IAZ064-065-067-068-078-030300-
   EAST CENTRAL IOWA

CITY           SKY/WX    TMP DP  RH WIND       PRES   REMARKS
DAVENPORT      CLEAR     75  69  81 S7        29.95R
IOWA CITY      CLEAR     74  70  87 SE3       29.94R
MT. PLEASANT * CLEAR     75  66  73 S6        29.95S
MUSCATINE *    CLEAR     75  70  83 CALM      29.94S
QUAD CITIES    CLEAR     77  69  76 CALM      29.94R
$$

IAZ062-063-075>077-085>089-095>099-030300-
   SOUTHEAST IOWA

CITY           SKY/WX    TMP DP  RH WIND       PRES   REMARKS
BURLINGTON     CLEAR     76  68  76 S5        29.96R
FAIRFIELD *    CLEAR     77  68  73 S6        29.95R
FORT MADISON * CLEAR     75  70  83 S3        29.97S
KEOKUK *       PTCLDY    79  68  69 S5        29.96R HX  81
OSKALOOSA *      N/A     73  70  88 SE5       29.94R
CENTERVILLE *  LGT RAIN  73  72  94 SE8       29.96R
OTTUMWA        PTCLDY    75  70  84 S8        29.92R
WASHINGTON *     N/A    N/A N/A N/A MISG        N/A
$$

ABBREVIATIONS USED IN REMARKS
   TC - TEMPERATURES IN CELSIUS
  WCI - WIND CHILL INDEX
   HX - HEAT INDEX
  VSB - VISIBILITY
$$




USA.gov is the U.S. government's official web portal to all federal, state and local government web resources and services.